Tracking 19827 objects as of 21-Aug-2019
HD Live streaming from Space Station
objects crossing your sky now

SL-8 R/B

Track SL-8 R/B now!
10-day predictions


NORAD ID: 12983
Int'l Code: 1981-116J
Perigee: 1,487.8 km
Apogee: 1,670.1 km
Inclination: 74.0 °
Period: 117.6 minutes
Semi major axis: 7949 km
RCS: 5.9807 m2 (large)
Launch date: November 28, 1981
Source: Commonwealth of Independent States (former USSR) (CIS)
Launch site: PLESETSK MISSILE AND SPACE COMPLEX (PKMTR)

Note: This is a ROCKET BODY
aabbcc
Your satellite tracking list
Your tracking list is empty




NASA's NSSDC Master Catalog

Two Line Element Set (TLE):
1 12983U 81116J   19232.91469719 -.00000016 +00000-0 -13035-4 0  9998
2 12983 073.9837 116.6241 0114661 011.6224 102.1042 12.24769517421289
Source of the keplerian elements: AFSPC